Location: Haut Kerinec
(48.0623°N, 4.4081°W)
Time: 18:40:36
(UTC+00:00)

SL-27 R/B - Pass Details

Date: 01 June 2020
Orbit: 420 x 470 km, 74.7° (Epoch: 11 July)

Event Time Altitude Azimuth Distance (km) Brightness Sun altitude
Rises 22:56:29 0° 330° (NNW) 2,516 7.8 -17.5°
Reaches altitude 10° 22:58:45 10° 320° (NW) 1,628 6.3 -17.6°
Maximum altitude 23:01:57 31° 257° (WSW) 831 3.7 -17.8°
Enters shadow 23:02:55 27° 225° (SW) 925 3.7 -17.9°
